This is the latest recevied weather packets stored in our database for station/object SQ9NFI-4. If no packets are shown the sender has not sent any weather packets the latest 10 day(s).
| Time | Temp. | Humidity | Pressure | Rain* | Wind** | Luminosity | Snow |
|---|---|---|---|---|---|---|---|
| 1777545316 | 13.33° C | 28% | 1029.5 hPa | 0 mm | - | 691 W/m² | - |
| 1777545016 | 12.78° C | 26% | 1029.5 hPa | 0 mm | - | 677 W/m² | - |
| 1777544716 | 12.22° C | 27% | 1029.5 hPa | 0 mm | - | 697 W/m² | - |
| 1777544416 | 12.78° C | 28% | 1029.5 hPa | 0 mm | - | 580 W/m² | - |
| 1777544116 | 12.78° C | 30% | 1029.5 hPa | 0 mm | - | 700 W/m² | - |
| 1777543816 | 12.22° C | 30% | 1029.5 hPa | 0 mm | - | 665 W/m² | - |
| 1777543516 | 12.22° C | 27% | 1029.5 hPa | 0 mm | - | 685 W/m² | - |
| 1777543216 | 12.78° C | 29% | 1029.5 hPa | 0 mm | - | 688 W/m² | - |
| 1777542916 | 12.22° C | 30% | 1029.5 hPa | 0 mm | - | 654 W/m² | - |
| 1777542616 | 11.67° C | 31% | 1029.5 hPa | 0 mm | - | 657 W/m² | - |
| 1777542316 | 12.78° C | 29% | 1029.5 hPa | 0 mm | - | 668 W/m² | - |
| 1777542016 | 12.78° C | 32% | 1029.5 hPa | 0 mm | - | 680 W/m² | - |
| 1777541716 | 13.33° C | 30% | 1029.5 hPa | 0 mm | - | 683 W/m² | - |
| 1777541418 | 11.67° C | 30% | 1029.5 hPa | 0 mm | - | 665 W/m² | - |
| 1777541116 | 11.67° C | 34% | 1030.1 hPa | 0 mm | - | 671 W/m² | - |
| 1777540816 | 11.11° C | 32% | 1030.1 hPa | 0 mm | - | 654 W/m² | - |
| 1777540516 | 11.67° C | 32% | 1030.1 hPa | 0 mm | - | 631 W/m² | - |
| 1777540216 | 11.67° C | 31% | 1030.1 hPa | 0 mm | - | 646 W/m² | - |
| 1777539916 | 11.67° C | 31% | 1030.1 hPa | 0 mm | - | 640 W/m² | - |
| 1777539616 | 11.11° C | 32% | 1030.1 hPa | 0 mm | - | 631 W/m² | - |
| 1777539316 | 11.11° C | 31% | 1030.1 hPa | 0 mm | - | 614 W/m² | - |
| 1777539016 | 11.11° C | 32% | 1030.5 hPa | 0 mm | - | 617 W/m² | - |
| 1777538716 | 10.56° C | 34% | 1030.5 hPa | 0 mm | - | 611 W/m² | - |
| 1777538416 | 11.11° C | 33% | 1030.5 hPa | 0 mm | - | 600 W/m² | - |
| 1777538118 | 11.67° C | 32% | 1030.5 hPa | 0 mm | - | 594 W/m² | - |
* Rain latest hour (hover to see other rain measurements)
** Current wind speed in m/s (hover to see current wind gust speed)